Regional Weather Roundup
Issued by NWS

Home | Current Version | Previous Version | Graphics & Text | Print | Product List | Glossary On
Versions: 1 2 3 4 5 6 7 8 9 10 11 12 13 14 15 16 17 18 19 20 21 22 23 24 25 26 27 28 29 30 31 32 33 34 35 36 37 38 39 40 41 42 43 44 45 46 47 48 49 50
585
ASUS45 KPSR 241310
RWRAZ

ARIZONA HOURLY REGIONAL WEATHER ROUNDUP
NATIONAL WEATHER SERVICE PHOENIX AZ
600 AM MST SAT SEP 24 2016

NOTE: FAIR INDICATES FEW OR NO CLOUDS BELOW 12,000 FEET WITH NO
SIGNIFICANT WEATHER AND/OR OBSTRUCTIONS TO VISIBILITY.

AZZ001>003-036-241400-
NORTHWEST ARIZONA

CITY           SKY/WX    TMP DP  RH WIND       PRES   REMARKS
BULLHEAD CITY  CLEAR     63  30  29 E3        30.02R
KINGMAN        CLEAR     44  32  62 CALM      30.13R
$$

AZZ004>008-015-016-018-241400-
NORTH CENTRAL ARIZONA

CITY           SKY/WX    TMP DP  RH WIND       PRES   REMARKS
GRAND CANYON   CLEAR     31  28  89 CALM      30.23R
PRESCOTT       CLEAR     43  35  73 SW5       30.18R
FLAGSTAFF      CLEAR     31  28  89 CALM      30.23R
PAYSON         MOCLDY    48  21  34 N3        30.18R
PAGE           CLEAR     50  35  56 SW3       30.13R
$$

AZZ009>014-017-241400-
NORTHEAST ARIZONA

CITY           SKY/WX    TMP DP  RH WIND       PRES   REMARKS
WINSLOW        PTCLDY    40  22  48 CALM      30.17R
SAINT JOHNS    PTCLDY    35  28  75 CALM      30.19R
WINDOW ROCK    CLEAR     30  25  81 CALM      30.21S
SHOW LOW       PTCLDY    32  16  51 SE3       30.22S
$$

AZZ023-241400-
GREATER PHOENIX AREA

CITY           SKY/WX    TMP DP  RH WIND       PRES   REMARKS
PHOENIX        CLEAR     64  34  32 E9        29.98S
BUCKEYE        CLEAR     55  41  58 CALM      30.01R
LUKE AFB       CLEAR     59  39  47 NW6       29.98R
DEER VALLEY    CLEAR     60  28  29 CALM      29.99R
SCOTTSDALE     CLEAR     61  38  42 CALM      30.01S
MESA-FALCON    CLEAR    N/A N/A N/A NE9       29.97
MESA-GATEWAY   PTCLDY    57  21  24 SE7       30.00F
CHANDLER       CLEAR     57  36  44 NE8       29.99
$$

AZZ027-028-241400-
SOUTHWEST MARICOPA COUNTY AND PINAL COUNTY

CITY           SKY/WX    TMP DP  RH WIND       PRES   REMARKS
CASA GRANDE    CLEAR     55  25  30 NE3       30.01S
GILA BEND      FAIR      58  24  27 SE3       29.98R
$$

AZZ503-504-507>509-241400-
SOUTHEAST ARIZONA

CITY           SKY/WX    TMP DP  RH WIND       PRES   REMARKS
TUCSON         PTCLDY    60  48  64 S5        30.07R
DAVIS-MONTHAN  CLEAR     58  50  74 SE5       30.06R
RYAN FIELD     CLEAR     57  32  38 CALM      30.07
NOGALES        CLEAR     54  50  86 E3        30.10R
SIERRA VISTA   PTCLDY    57  48  73 W5        30.15R
DOUGLAS        CLEAR     50  47  89 NE3       30.12R
SAFFORD          N/A    N/A N/A N/A MISG      30.06R
$$

AZZ020-021-025-026-031-241400-
SOUTHWEST ARIZONA

CITY           SKY/WX    TMP DP  RH WIND       PRES   REMARKS
YUMA           CLEAR     66  35  31 NE3       29.96R
$$

CAZ031-033-041-043-047-048-061-241400-
SOUTHERN CALIFORNIA

CITY           SKY/WX    TMP DP  RH WIND       PRES   REMARKS
DOWNTOWN L.A.  CLEAR     63  42  46 CALM      29.99R
L.A. AIRPORT   PTCLDY    63  50  62 E5        29.99R
SAN DIEGO      CLEAR     64  52  64 CALM      29.99S
BURBANK        CLEAR     59  36  42 CALM      29.99R
ONTARIO        CLEAR     61  40  45 NE3       30.01R
RIVERSIDE      CLEAR     60  39  45 NE5       30.02R
PALM SPRINGS   CLEAR     66  35  31 NW5       30.01R
EL CENTRO NAS  CLEAR     62  34  35 W6        29.97S
IMPERIAL       CLEAR     60  41  49 W6        29.95S
BLYTHE         CLEAR     61  34  36 N7        29.99R
NEEDLES        CLEAR     63  29  27 W6        30.01R
$$

NVZ020-UTZ003-241400-
SOUTHERN NEVADA-UTAH

CITY           SKY/WX    TMP DP  RH WIND       PRES   REMARKS
LAS VEGAS      CLEAR     62  23  22 SW3       30.08R
SALT LAKE CITY CLOUDY    50  43  77 SE8       30.13R
$$

NMZ009-TXZ055-241400-
NEW MEXICO-WEST TEXAS

CITY           SKY/WX    TMP DP  RH WIND       PRES   REMARKS
ALBUQUERQUE    PTCLDY    45  41  86 CALM      30.16R
EL PASO        PTCLDY    69  45  41 CALM      30.07R
$$


........................KEY........................
SKY/WX - SKY CONDITION/WEATHER
TMP    - TEMPERATURE IN FAHRENHEIT
DP     - DEW POINT IN FAHRENHEIT
RH     - RELATIVE HUMIDITY IN PERCENT
WIND   - DIRECTION AND SPEED IN MILES PER HOUR (MPH)
VRB    - VARIABLE WIND DIRECTION
PRES   - MEAN SEA LEVEL PRESSURE IN INCHES OF MERCURY
         F - FALLING PRESSURE   R - RISING PRESSURE
         S - STEADY PRESSURE
VSB    - VISIBILITY IN MILES
HX     - HEAT INDEX IN FAHRENHEIT
WCI    - WIND CHILL INDEX IN FAHRENHEIT
TC     - TEMPERATURE IN CELSIUS WHICH IS ALSO KNOWN AS
         TEMPERATURE IN CENTIGRADE
AFB    - AIR FORCE BASE
         LUKE AFB IS LUKE AIR FORCE BASE
         DAVIS-MONTHAN IS DAVIS-MONTHAN AIR FORCE BASE
NAS    - NAVAL AIR STATION
         EL CENTRO NAS IS EL CENTRO NAVAL AIR STATION
N/A    - NOT AVAILABLE





USA.gov is the U.S. government's official web portal to all federal, state and local government web resources and services.